Location: Houston
(29.7630°N, 95.3630°W)
Time: 13:10:30
(UTC-06:00)

Amateur Radio Satellites - All Passes

Search period start: 19 February 2017 12:40
Search period end: 20 February 2017 12:40
Location: Houston, 29.7630°N, 95.3630°W

Satellite Date Start Highest point End Downlink Frequencies (MHz)
Time Altitude Azimuth
POLYITAN 1 19 Feb 12:41:53 12:42:53 11° 266° (W) 12:43:54 437.675
VELOX 1 19 Feb 12:56:58 13:01:10 45° 286° (WNW) 13:05:22 145.980
DX 1 19 Feb 13:11:02 13:15:22 77° 284° (WNW) 13:19:43 434.975-435.025
UKube-1 19 Feb 13:37:02 13:41:13 52° 285° (WNW) 13:45:25 .
Gurwin Techsat 1B 19 Feb 13:46:17 13:51:34 77° 257° (WSW) 13:56:54 435.225
Oscar 19 19 Feb 13:56:32 14:01:01 30° 262° (W) 14:05:31 437.125/150
SPROUT 19 Feb 13:59:06 14:00:04 11° 292° (WNW) 14:01:00 437.525
AO-7 19 Feb 14:04:40 14:11:42 31° 63° (ENE) 14:18:44 .
ITUPSAT 1 19 Feb 14:12:56 14:16:13 18° 96° (E) 14:19:30 437.325
ITAMSAT 1 19 Feb 14:15:14 14:19:48 32° 71° (ENE) 14:24:23 435.822/435.867
BEESAT 19 Feb 14:23:35 14:27:30 25° 97° (E) 14:31:24 436.000
AO-85 19 Feb 14:38:39 14:41:27 19° 56° (NE) 14:44:18 145.980
MOZHAYETS 4 19 Feb 15:43:19 15:47:55 69° 101° (E) 15:52:28
ITUPSAT 1 19 Feb 15:49:44 15:54:02 33° 288° (WNW) 15:58:18 437.325
ITAMSAT 1 19 Feb 15:55:14 15:59:12 22° 263° (W) 16:03:13 435.822/435.867
AO-7 19 Feb 15:56:05 16:04:03 48° 258° (WSW) 16:12:04 .
BEESAT 19 Feb 16:01:16 16:05:07 25° 290° (WNW) 16:08:57 436.000
RS-15 19 Feb 16:14:17 16:20:15 15° 98° (E) 16:26:18 29.354- 29.394
PCSat 19 Feb 16:14:55 16:18:17 17° 105° (ESE) 16:21:39 145.827
AO-85 19 Feb 16:18:33 16:21:45 24° 248° (WSW) 16:25:02 145.980
STARS 19 Feb 16:20:35 16:23:18 16° 96° (E) 16:26:00 437.465
CUBESAT XI-V 19 Feb 16:25:17 16:29:06 26° 97° (E) 16:32:54 437.345
BEESAT 3 19 Feb 16:33:05 16:35:40 16° 55° (NE) 16:38:14 437.485
XW-2F 19 Feb 16:54:19 16:55:39 12° 70° (ENE) 16:56:58 145.980 - 146.000
XW-2D 19 Feb 16:54:30 16:56:09 13° 70° (ENE) 16:57:50 145.860 - 145.880
BEESAT 2 19 Feb 16:57:19 16:59:01 12° 53° (NE) 17:00:43 435.950
DOVE 4 19 Feb 16:58:57 17:01:37 17° 71° (ENE) 17:04:15 437.250
XW-2B 19 Feb 16:58:59 17:01:00 14° 70° (ENE) 17:03:02 145.730 - 145.750
KAITUO 1B 19 Feb 17:00:45 17:02:04 11° 70° (ENE) 17:03:22 145.475/437.950
KKS-1 19 Feb 17:02:42 17:07:06 59° 285° (WNW) 17:11:29 437.445
ISS 19 Feb 17:04:58 17:07:26 19° 39° (NE) 17:09:53 437.550
XW-2C 19 Feb 17:06:39 17:09:17 18° 72° (ENE) 17:11:56 145.795 - 145.815
LilacSat-2 19 Feb 17:15:45 17:18:55 25° 73° (ENE) 17:22:08 437.200
M-CUBED/EXP-1 PRIME 19 Feb 17:24:42 17:28:24 62° 106° (ESE) 17:32:23 437.505
NUDT-PHONESAT 19 Feb 17:41:19 17:44:51 42° 75° (ENE) 17:48:25 437.300
Tancredo 1 19 Feb 17:45:10 17:48:20 57° 45° (NE) 17:51:28 437.200
HO-68 19 Feb 17:49:47 17:54:06 17° 62° (ENE) 17:58:25 435.675
CUTE-I 19 Feb 17:53:27 17:58:44 73° 75° (ENE) 18:04:04 437.470
STARS 19 Feb 17:55:41 17:59:38 33° 287° (WNW) 18:03:35 437.465
PCSat 19 Feb 17:56:03 18:01:13 46° 297° (WNW) 18:06:26 145.827
CUBESAT XI-V 19 Feb 18:02:47 18:06:17 22° 289° (WNW) 18:09:46 437.345
BEESAT 3 19 Feb 18:09:46 18:13:17 30° 249° (WSW) 18:16:46 437.485
RS-15 19 Feb 18:19:04 18:30:49 85° 114° (ESE) 18:43:09 29.354- 29.394
XW-2F 19 Feb 18:25:58 18:29:26 33° 262° (W) 18:32:55 145.980 - 146.000
XW-2D 19 Feb 18:26:37 18:30:00 31° 262° (W) 18:33:26 145.860 - 145.880
XW-2B 19 Feb 18:31:37 18:34:54 27° 263° (W) 18:38:13 145.730 - 145.750
KAITUO 1B 19 Feb 18:32:17 18:35:43 33° 262° (W) 18:39:10 145.475/437.950
BEESAT 2 19 Feb 18:33:08 18:36:58 43° 247° (WSW) 18:40:47 435.950
DOVE 4 19 Feb 18:35:30 18:39:05 27° 262° (W) 18:42:37 437.250
CUTE 1.7 + AOD 2 19 Feb 18:35:42 18:39:04 23° 72° (ENE) 18:42:27 437.475
XW-2C 19 Feb 18:40:22 18:43:18 21° 264° (W) 18:46:15 145.795 - 145.815
ISS 19 Feb 18:41:06 18:43:52 25° 232° (SW) 18:46:36 437.550
LilacSat-2 19 Feb 18:50:52 18:53:09 15° 265° (W) 18:55:27 437.200
STRAND 1 19 Feb 19:03:25 19:07:59 31° 98° (E) 19:12:30 437.568
XW-2A 19 Feb 19:04:30 19:07:50 81° 259° (W) 19:11:14 145.665 - 145.685
CUBEBUG 2 19 Feb 19:21:22 19:25:12 33° 73° (ENE) 19:29:10 437.445
HO-68 19 Feb 19:33:53 19:41:02 72° 256° (WSW) 19:48:14 435.675
SEEDS 19 Feb 19:44:30 19:48:44 73° 259° (W) 19:52:59 437.485
AAUSAT CUBESAT 2 19 Feb 19:53:21 19:57:29 63° 77° (ENE) 20:01:36 437.432
AO-73 19 Feb 20:04:35 20:08:29 33° 73° (ENE) 20:12:28 145.935
CUTE 1.7 + AOD 2 19 Feb 20:11:30 20:14:46 21° 264° (W) 20:18:03 437.475
UWE-3 19 Feb 20:12:02 20:16:20 86° 78° (ENE) 20:20:47 435.000/436.395/437.385
Oscar 11 19 Feb 20:19:25 20:23:33 45° 75° (ENE) 20:27:41 .
RS-15 19 Feb 20:35:23 20:44:49 26° 316° (NW) 20:54:34 29.354- 29.394
STRAND 1 19 Feb 20:42:55 20:46:54 23° 291° (WNW) 20:50:53 437.568
ZACube-1 19 Feb 20:47:54 20:52:10 61° 260° (W) 20:56:34 437.345
DELFI C3 19 Feb 20:49:15 20:52:38 27° 73° (ENE) 20:56:01 145.870
CUBEBUG 2 19 Feb 20:59:28 21:01:52 15° 266° (W) 21:04:20 437.445
YUBILEINY 19 Feb 21:01:42 21:06:55 17° 71° (ENE) 21:12:07 435.215
AO-73 19 Feb 21:42:14 21:44:45 15° 266° (W) 21:47:18 145.935
JUGNU 19 Feb 21:48:46 21:51:17 13° 161° (SSE) 21:53:48 437.505
UNISAT 6 19 Feb 21:55:51 22:00:12 37° 98° (E) 22:04:30 437.425
TIGRISAT 19 Feb 21:58:11 22:02:31 36° 98° (E) 22:06:49 435.000
Oscar 11 19 Feb 21:58:41 21:59:48 11° 267° (W) 22:00:57 .
PRISM 19 Feb 22:07:18 22:11:13 50° 285° (WNW) 22:15:10 437.425
DELFI C3 19 Feb 22:25:03 22:27:23 15° 265° (W) 22:29:42 145.870
ESTCUBE 1 19 Feb 22:54:48 22:59:12 55° 75° (ENE) 23:03:38 437.505/2401.250
YUBILEINY 19 Feb 22:55:45 23:04:28 77° 267° (W) 23:13:06 435.215
POLYITAN 1 19 Feb 22:55:59 22:57:23 11° 94° (E) 22:58:47 437.675
QB50P2 19 Feb 22:57:58 23:00:06 13° 94° (E) 23:02:14 145.880/145.840
FO-29 19 Feb 23:01:18 23:09:01 76° 102° (ESE) 23:15:59 435.910
NANOSAT C BR1 19 Feb 23:01:18 23:02:59 12° 94° (E) 23:04:40 145.865
SO-50 19 Feb 23:03:14 23:07:43 45° 113° (ESE) 23:12:10 436.795
SPROUT 19 Feb 23:09:02 23:11:47 17° 70° (ENE) 23:14:32 437.525
AIST 2D 19 Feb 23:22:30 23:25:57 45° 99° (E) 23:29:21 435.315
UNISAT 6 19 Feb 23:33:36 23:36:32 17° 291° (WNW) 23:39:26 437.425
JUGNU 19 Feb 23:35:00 23:39:44 25° 169° (S) 23:44:28 437.505
TIGRISAT 19 Feb 23:35:52 23:38:50 17° 291° (WNW) 23:41:48 435.000
VELOX 1 19 Feb 23:47:42 23:52:04 71° 77° (ENE) 23:56:26 145.980
BUGSAT 1 19 Feb 23:58:45 00:01:40 18° 96° (E) 00:04:35 437.445
DX 1 20 Feb 00:00:31 00:04:33 40° 74° (ENE) 00:08:35 434.975-435.025
O/OREOS (USA 219) 20 Feb 00:03:51 00:08:15 60° 290° (WNW) 00:12:41 437.305
DUCHIFAT 1 20 Feb 00:10:11 00:14:27 89° 95° (E) 00:18:42 145.980
EO-79 20 Feb 00:13:33 00:17:48 67° 284° (WNW) 00:22:03 145.935-145.965
50 SAT 20 Feb 00:22:15 00:25:41 50° 259° (W) 00:29:07 437.505
SRMSAT 20 Feb 00:24:04 00:26:51 13° 161° (SSE) 00:29:38 437.500
UKube-1 20 Feb 00:25:08 00:29:19 56° 75° (ENE) 00:33:33 .
POLYITAN 1 20 Feb 00:29:14 00:33:17 42° 286° (WNW) 00:37:19 437.675
QB50P2 20 Feb 00:32:02 00:35:57 35° 286° (WNW) 00:39:51 145.880/145.840
NANOSAT C BR1 20 Feb 00:34:49 00:38:47 39° 286° (WNW) 00:42:45 145.865
Oscar 19 20 Feb 00:36:36 00:38:59 13° 94° (E) 00:41:21 437.125/150
SPROUT 20 Feb 00:43:46 00:47:25 28° 262° (W) 00:51:07 437.525
SO-50 20 Feb 00:45:26 00:48:20 16° 307° (NW) 00:51:14 436.795
FO-29 20 Feb 00:48:19 00:52:59 18° 298° (WNW) 00:57:28 435.910
ITUPSAT 1 20 Feb 01:15:45 01:17:13 11° 66° (ENE) 01:18:42 437.325
RS-15 20 Feb 01:19:15 01:25:32 15° 31° (NNE) 01:31:41 29.354- 29.394
JUGNU 20 Feb 01:23:05 01:28:16 32° 179° (S) 01:33:30 437.505
BEESAT 20 Feb 01:25:13 01:27:58 15° 68° (ENE) 01:30:43 436.000
BUGSAT 1 20 Feb 01:33:24 01:36:57 26° 288° (WNW) 01:40:30 437.445
DX 1 20 Feb 01:39:05 01:40:49 12° 265° (W) 01:42:34 434.975-435.025
Gurwin Techsat 1B 20 Feb 02:08:37 02:13:56 71° 102° (ESE) 02:19:14 435.225
SRMSAT 20 Feb 02:10:39 02:15:30 25° 169° (S) 02:20:20 437.500
Oscar 19 20 Feb 02:13:32 02:18:29 51° 286° (WNW) 02:23:25 437.125/150
AO-7 20 Feb 02:16:12 02:18:54 12° 93° (E) 02:21:36 .
ITAMSAT 1 20 Feb 02:34:47 02:38:26 19° 96° (E) 02:42:04 435.822/435.867
MOZHAYETS 4 20 Feb 02:39:16 02:43:21 32° 73° (ENE) 02:47:27
ITUPSAT 1 20 Feb 02:49:47 02:54:29 57° 259° (W) 02:59:13 437.325
PCSat 20 Feb 02:49:54 02:54:57 38° 61° (ENE) 02:59:58 145.827
BEESAT 20 Feb 03:00:50 03:05:19 41° 260° (W) 03:09:51 436.000
JUGNU 20 Feb 03:11:57 03:16:51 27° 189° (S) 03:21:47 437.505
CUBESAT XI-V 20 Feb 03:24:06 03:26:23 14° 68° (ENE) 03:28:41 437.345
RS-15 20 Feb 03:29:29 03:41:31 57° 58° (ENE) 03:52:56 29.354- 29.394
Gurwin Techsat 1B 20 Feb 03:51:52 03:53:12 11° 295° (WNW) 03:54:33 435.225
KKS-1 20 Feb 03:54:26 03:58:45 57° 75° (ENE) 04:03:06 437.445
SRMSAT 20 Feb 03:58:57 04:04:13 32° 179° (S) 04:09:29 437.500
AO-7 20 Feb 04:04:04 04:12:25 86° 107° (ESE) 04:20:42 .
M-CUBED/EXP-1 PRIME 20 Feb 04:06:25 04:09:12 23° 70° (ENE) 04:11:54 437.505
ITAMSAT 1 20 Feb 04:13:06 04:17:55 38° 288° (WNW) 04:22:43 435.822/435.867
MOZHAYETS 4 20 Feb 04:17:20 04:20:29 18° 265° (W) 04:23:39
PCSat 20 Feb 04:34:04 04:38:00 21° 254° (WSW) 04:41:57 145.827
STARS 20 Feb 04:45:33 04:49:53 82° 258° (WSW) 04:54:15 437.465
AO-85 20 Feb 04:46:21 04:50:30 30° 112° (ESE) 04:54:24 145.980
CUBESAT XI-V 20 Feb 04:58:51 05:03:19 45° 261° (W) 05:07:48 437.345
JUGNU 20 Feb 05:02:06 05:05:21 15° 198° (SSW) 05:08:36 437.505
M-CUBED/EXP-1 PRIME 20 Feb 05:42:16 05:43:38 12° 259° (W) 05:44:59 437.505
RS-15 20 Feb 05:42:56 05:53:18 35° 255° (WSW) 06:03:16 29.354- 29.394
SRMSAT 20 Feb 05:48:02 05:52:57 27° 190° (S) 05:57:52 437.500
AO-7 20 Feb 05:59:21 06:04:06 17° 302° (WNW) 06:08:52 .
XW-2F 20 Feb 06:03:58 06:07:29 35° 98° (E) 06:10:57 145.980 - 146.000
XW-2D 20 Feb 06:04:48 06:08:24 39° 99° (E) 06:11:58 145.860 - 145.880
KAITUO 1B 20 Feb 06:09:23 06:12:50 34° 98° (E) 06:16:15 145.475/437.950
XW-2B 20 Feb 06:09:38 06:13:18 44° 99° (E) 06:16:56 145.730 - 145.750
STRAND 1 20 Feb 06:13:45 06:17:50 25° 70° (ENE) 06:21:57 437.568
CUTE-I 20 Feb 06:16:43 06:21:55 49° 100° (E) 06:27:06 437.470
XW-2C 20 Feb 06:17:54 06:21:42 60° 100° (E) 06:25:26 145.795 - 145.815
BEESAT 3 20 Feb 06:19:44 06:20:08 10° 107° (ESE) 06:20:33 437.485
AO-85 20 Feb 06:27:19 06:30:51 21° 303° (WNW) 06:34:13 145.980
LilacSat-2 20 Feb 06:28:14 06:32:06 90° 172° (S) 06:35:55 437.200
DOVE 4 20 Feb 06:38:24 06:43:02 72° 284° (WNW) 06:47:58 437.250
NUDT-PHONESAT 20 Feb 06:51:27 06:55:08 54° 284° (WNW) 06:58:46 437.300
HO-68 20 Feb 07:08:52 07:15:03 31° 98° (E) 07:21:12 435.675
CUBEBUG 2 20 Feb 07:19:34 07:21:44 13° 93° (E) 07:23:51 437.445
SEEDS 20 Feb 07:34:44 07:38:18 28° 97° (E) 07:41:51 437.485
SRMSAT 20 Feb 07:38:26 07:41:35 15° 198° (SSW) 07:44:44 437.500
XW-2F 20 Feb 07:40:17 07:41:13 11° 291° (WNW) 07:42:10 145.980 - 146.000
AAUSAT CUBESAT 2 20 Feb 07:42:47 07:45:13 15° 95° (E) 07:47:37 437.432
KAITUO 1B 20 Feb 07:45:30 07:46:28 11° 291° (WNW) 07:47:26 145.475/437.950
STRAND 1 20 Feb 07:52:26 07:56:49 29° 262° (W) 08:01:14 437.568
BEESAT 3 20 Feb 07:53:37 07:57:17 40° 300° (WNW) 08:01:00 437.485
CUTE-I 20 Feb 07:58:15 08:01:29 16° 293° (WNW) 08:04:43 437.470
AO-73 20 Feb 08:01:01 08:02:07 11° 92° (E) 08:03:13 145.935
CUTE 1.7 + AOD 2 20 Feb 08:01:09 08:05:22 78° 284° (WNW) 08:09:33 437.475
XW-2A 20 Feb 08:05:10 08:08:14 30° 286° (WNW) 08:11:17 145.665 - 145.685
UWE-3 20 Feb 08:07:55 08:11:59 29° 97° (E) 08:15:58 435.000/436.395/437.385
Oscar 11 20 Feb 08:14:17 08:16:21 13° 94° (E) 08:18:25 .
BEESAT 2 20 Feb 08:18:31 08:22:22 57° 299° (WNW) 08:26:17 435.950
ZACube-1 20 Feb 08:42:13 08:46:33 41° 99° (E) 08:50:47 437.345
Tancredo 1 20 Feb 08:42:53 08:45:46 29° 129° (SE) 08:48:39 437.200
UNISAT 6 20 Feb 08:50:01 08:52:38 16° 69° (ENE) 08:55:18 437.425
PRISM 20 Feb 08:50:19 08:54:13 45° 75° (ENE) 08:58:08 437.425
TIGRISAT 20 Feb 08:52:15 08:54:48 15° 68° (ENE) 08:57:22 435.000
CUBEBUG 2 20 Feb 08:53:54 08:58:28 46° 285° (WNW) 09:02:59 437.445
HO-68 20 Feb 08:56:13 09:02:41 39° 292° (WNW) 09:09:10 435.675
FO-29 20 Feb 09:08:02 09:12:26 18° 62° (ENE) 09:17:07 435.910
SEEDS 20 Feb 09:11:05 09:13:43 17° 290° (WNW) 09:16:21 437.485
AAUSAT CUBESAT 2 20 Feb 09:17:07 09:20:38 28° 287° (WNW) 09:24:10 437.432
SO-50 20 Feb 09:20:19 09:24:48 85° 243° (WSW) 09:29:16 436.795
AO-73 20 Feb 09:34:09 09:38:32 49° 285° (WNW) 09:42:50 145.935
ISS 20 Feb 09:39:37 09:42:49 48° 316° (NW) 09:46:01 437.550
UWE-3 20 Feb 09:44:44 09:48:10 21° 290° (WNW) 09:51:34 435.000/436.395/437.385
Oscar 11 20 Feb 09:48:34 09:52:33 36° 286° (WNW) 09:56:29 .
YUBILEINY 20 Feb 09:54:32 10:01:13 25° 84° (E) 10:07:53 435.215
DELFI C3 20 Feb 10:06:14 10:10:08 76° 282° (WNW) 10:14:02 145.870
O/OREOS (USA 219) 20 Feb 10:19:40 10:24:15 88° 256° (WSW) 10:28:50 437.305
Tancredo 1 20 Feb 10:19:47 10:22:05 18° 322° (NW) 10:24:22 437.200
ZACube-1 20 Feb 10:20:02 10:22:23 14° 292° (WNW) 10:24:42 437.345
UNISAT 6 20 Feb 10:24:59 10:28:59 34° 262° (W) 10:33:04 437.425
TIGRISAT 20 Feb 10:27:06 10:31:06 35° 262° (W) 10:35:13 435.000
FO-29 20 Feb 10:50:03 10:56:31 68° 259° (W) 11:03:52 435.910
ESTCUBE 1 20 Feb 10:54:13 10:57:21 19° 96° (E) 11:00:27 437.505/2401.250
DUCHIFAT 1 20 Feb 10:56:17 10:59:50 28° 72° (ENE) 11:03:24 145.980
EO-79 20 Feb 10:59:53 11:03:45 38° 74° (ENE) 11:07:40 145.935-145.965
POLYITAN 1 20 Feb 11:15:13 11:19:22 62° 76° (ENE) 11:23:34 437.675
QB50P2 20 Feb 11:17:53 11:22:04 74° 78° (ENE) 11:26:18 145.880/145.840
NANOSAT C BR1 20 Feb 11:20:16 11:24:24 65° 76° (ENE) 11:28:34 145.865
AIST 2D 20 Feb 11:23:49 11:27:14 47° 261° (W) 11:30:40 435.315
VELOX 1 20 Feb 11:44:23 11:47:45 21° 97° (E) 11:51:08 145.980
YUBILEINY 20 Feb 11:48:45 11:57:20 56° 279° (W) 12:05:58 435.215
Oscar 19 20 Feb 11:48:58 11:50:27 11° 65° (ENE) 11:51:56 437.125/150
50 SAT 20 Feb 11:54:07 11:56:13 15° 96° (E) 11:58:18 437.505
DX 1 20 Feb 11:56:52 11:58:11 11° 94° (E) 11:59:30 434.975-435.025
BUGSAT 1 20 Feb 12:16:15 12:20:15 88° 257° (WSW) 12:24:18 437.445
UKube-1 20 Feb 12:19:25 12:21:57 15° 96° (E) 12:24:27 .
ESTCUBE 1 20 Feb 12:30:15 12:34:05 28° 288° (WNW) 12:37:54 437.505/2401.250
DUCHIFAT 1 20 Feb 12:32:48 12:35:27 16° 265° (W) 12:38:08 145.980
